Location: Arclight Observatory
(36.5667°N, 87.3333°W)
Time: 04:53:56
(UTC-06:00)

Hubble Space Telescope - Visible Passes

Search period start: 17 January 2017 00:00
Search period end: 27 January 2017 00:00
Orbit: 538 x 542 km, 28.5° (Epoch: 17 January)

Date Brightness Start Highest point End Pass type
(mag) Time Alt. Az. Time Alt. Az. Time Alt. Az.
17 Jan 2.8 17:44:13 10° WSW 17:47:31 23° S 17:50:49 10° SE visible
17 Jan 3.6 19:26:44 10° SW 19:28:06 11° SSW 19:28:06 11° SSW visible
18 Jan 3.0 17:34:21 10° WSW 17:37:30 21° S 17:40:39 10° SE visible
19 Jan 3.2 17:24:32 10° WSW 17:27:28 19° SSW 17:30:24 10° SSE visible
